Location: B?dimalle
(17.1788°N, 80.5377°E)
Time: 01:00:09
(UTC+00:00)

Injun/Solrad 3 - Pass Details

Date: 22 February 2026
Orbit: 872 x 984 km, 66.8° (Epoch: 7 March)

Event Time Altitude Azimuth Distance (km) Brightness Sun altitude
Rises 13:56:13 0° 354° (N) 3,616 11.0 -18.3°
Reaches altitude 10° 13:59:04 10° 5° (N) 2,686 10.2 -19.0°
Enters shadow 14:04:02 31° 57° (ENE) 1,642 8.7 -20.2°
